Retour au catalogue

STARLINK-2236

ActifCommunicationsVLEO
NORAD 48582·PAYLOAD·🇺🇸 United States

Lancé May 15, 2021 depuis Cape Canaveral Space Force Station

Loading…

Prochains Passages (prochaines 24 heures)

TLE

FraisSource: CelesTrak SupGP

Époque: Sep 14, 2026, 13:29 UTC

1 48582C 21041AF  26257.56229167  .00218470  00000+0  11530-2 0  2575
2 48582  53.0467 287.0901 0010514  33.4700 198.1802 15.79740332    10

Suivez STARLINK-2236 en temps réel avec AllMySat

Download on the App Store